Вернуться в каталог

STARLINK-34323

АктивенСвязьVLEO
NORAD 64219·PAYLOAD·🇺🇸 United States

Запущен May 31, 2025 с Vandenberg Space Force Base

Loading…

Ближайшие Пролёты (ближайшие 24 часа)

TLE

СвежийSource: CelesTrak SupGP

Эпоха: Sep 15, 2026, 03:11 UTC

1 64219C 25117S   26258.13312500 -.00049087  00000+0 -14503-2 0  2588
2 64219  53.1570 238.4834 0001321  90.3807  27.0589 15.34413892    13

Отслеживайте STARLINK-34323 в реальном времени с AllMySat

Download on the App Store